Whidbey Island, WA

1:47 PM PDT on May 21, 2018 (GMT -0700)
Whidbey Island Naval Air Station

Weather History for KNUW - April, 2014

Change the Weather History Date:

Saturday, April 12, 2014

  Actual Average Record
Temperature  
Mean Temperature 50 °F -  
Max Temperature 57 °F 53 °F 63 °F (1997)
Min Temperature 43 °F 38 °F 34 °F (2001)
Degree Days  
Heating Degree Days 15    
Moisture  
Dew Point 43 °F    
Average Humidity 74    
Maximum Humidity 86    
Minimum Humidity 61    
Precipitation  
Precipitation 0.00 in - - ()
Sea Level Pressure  
Sea Level Pressure 30.14 in    
Wind  
Wind Speed 10 mph (West)    
Max Wind Speed 16 mph    
Max Gust Speed -    
Visibility 10 miles    
Events      
Averages and records for this station are not official NWS values.
T = Trace of Precipitation, MM = Missing Value Source: NWS Daily Summary

Daily Weather History Graph

Daily Weather History Graph

Search for Another Location

Airport or City:

Astronomy

Apr. 12, 2014 Rise Set
Actual Time 6:26 AM PDT 7:57 PM PDT
Civil Twilight 5:53 AM PDT 8:30 PM PDT
Nautical Twilight 5:14 AM PDT 9:09 PM PDT
Astronomical Twilight 4:31 AM PDT 9:53 PM PDT
Moon 5:31 PM PDT (4/12) 5:07 AM PDT (4/12)
Length of Visible Light 14h 36m
Length of Day
13h 31m
Waxing Gibbous, 93% of the Moon is Illuminated
Apr 12
Waxing Gibbous
Apr 15
Full
Apr 22
Last Quarter
Apr 28
New
May 6
First Quarter

Hourly Weather History & Observations

Time (PDT) Temp. Windchill Dew Point Humidity Pressure Visibility Wind Dir Wind Speed Gust Speed Precip Events Conditions
12:56 AM 50.0 °F - 42.1 °F 74% 30.09 in 10.0 mi West 16.1 mph - N/A   Scattered Clouds
1:56 AM 50.0 °F - 42.1 °F 74% 30.10 in 10.0 mi West 15.0 mph - N/A   Mostly Cloudy
2:56 AM 48.9 °F - 43.0 °F 80% 30.10 in 10.0 mi WNW 13.8 mph - N/A   Mostly Cloudy
3:56 AM 48.9 °F - 43.0 °F 80% 30.10 in 10.0 mi WNW 12.7 mph - N/A   Mostly Cloudy
4:56 AM 48.0 °F - 43.0 °F 83% 30.12 in 10.0 mi NW 6.9 mph - N/A   Scattered Clouds
5:56 AM 46.0 °F - 41.0 °F 83% 30.11 in 10.0 mi Calm Calm - N/A   Scattered Clouds
6:56 AM 43.0 °F 41.3 °F 39.0 °F 86% 30.12 in 10.0 mi SSE 3.5 mph - N/A   Scattered Clouds
7:56 AM 46.0 °F 44.8 °F 42.1 °F 86% 30.14 in 10.0 mi SW 3.5 mph - N/A   Scattered Clouds
8:56 AM 50.0 °F - 43.0 °F 77% 30.15 in 10.0 mi WNW 6.9 mph - N/A   Mostly Cloudy
9:56 AM 51.1 °F - 43.0 °F 74% 30.15 in 10.0 mi WNW 8.1 mph - N/A   Overcast
10:56 AM 52.0 °F - 44.1 °F 74% 30.16 in 10.0 mi West 10.4 mph - N/A   Overcast
11:56 AM 55.9 °F - 46.0 °F 69% 30.16 in 10.0 mi WNW 9.2 mph - N/A   Mostly Cloudy
12:56 PM 55.9 °F - 45.0 °F 67% 30.16 in 10.0 mi WNW 10.4 mph - N/A   Scattered Clouds
1:56 PM 57.0 °F - 46.0 °F 67% 30.16 in 10.0 mi WNW 12.7 mph - N/A   Partly Cloudy
2:56 PM 57.0 °F - 45.0 °F 64% 30.16 in 10.0 mi West 11.5 mph - N/A   Partly Cloudy
3:56 PM 55.9 °F - 45.0 °F 67% 30.14 in 10.0 mi West 10.4 mph - N/A   Partly Cloudy
4:56 PM 55.9 °F - 45.0 °F 67% 30.14 in 10.0 mi West 12.7 mph - N/A   Partly Cloudy
5:56 PM 55.0 °F - 46.0 °F 72% 30.14 in 10.0 mi West 10.4 mph - N/A   Partly Cloudy
6:56 PM 54.0 °F - 44.1 °F 69% 30.14 in 10.0 mi West 8.1 mph - N/A   Partly Cloudy
7:56 PM 51.1 °F - 43.0 °F 74% 30.15 in 10.0 mi West 6.9 mph - N/A   Partly Cloudy
8:56 PM 52.0 °F - 39.0 °F 61% 30.17 in 10.0 mi West 5.8 mph - N/A   Partly Cloudy
9:56 PM 48.9 °F - 41.0 °F 74% 30.19 in 10.0 mi South 3.5 mph - N/A   Scattered Clouds
10:56 PM 51.1 °F - 42.1 °F 71% 30.20 in 10.0 mi WSW 4.6 mph - N/A   Scattered Clouds
11:56 PM 44.1 °F 40.8 °F 39.0 °F 82% 30.22 in 10.0 mi ESE 5.8 mph - N/A   Scattered Clouds